Unit,1F5,,,
Data type,Regular data,,,
Sampling cycle,10 seconds,,,
Number of data,1452,,,
Number of signals,74,,,
Time when data recording was started,2011/3/2 15:00:00,,,
Time when data recording was finished,2011/3/12 16:50:00,,,
Interval,1,,,
Name of original data,1F5_Cy1_PDF_2011_03_02_15_00_00_10min.dat,,,









,PLR pump A_upper part vibration,PLR pump B_upper part vibration,Recirculation loop_A_flow rate,Recirculation loop_B_flow rate,MG_A_generator current,MG_B_generator current,Scoop tube_A_position settings,Scoop tube_B_position settings,Recirculation pump_A_differential pressure,Recirculation pump_B_differential pressure,Jet pump_A_flow rate,Jet pump_B_flow rate,Pressure difference among grid plates on the reactor core bottom part,MG set generator A_speed,MG set generator B_speed,Reactor core differential pressure,MG_A_generator voltage,MG_B_generator voltage,Generator power,Generator current �iS phase�j,Generator voltage �iS-T phase�j,Generator field current,Generator field voltage,Generator reactive power,Generator current �iR phase�j,Generator current �iT phase�j,Generator voltage �iR-S phase),Generator voltage �iT-R phase�j,System voltage,System frequency,480V_P/C_5C,480V_P/C_5D,Reactor pressure (N/R),Reactor pressure (W/R),Turbine first stage steam room pressure,EHC load requirement error signal,TB_control valve_#1_opening amount,TB_control valve_#2_opening amount,TB_control valve_#3_opening amount,TB_control valve_#4_opening amount,EHC_pressure sensor signal,TB bypass valve #1_opening amount,TB bypass valve #2_opening amount,EHC_pressure setting signal,TB bypass valve #3_opening amount,TB_control valve opening amount_�itotal�j,Bypass valve opening amount_�itotal�j,Intercept valve #1 opening amount,Intercept valve #3 opening amount,Intercept valve #5 opening amount,EHC_load setting signal,Intermediate steam pressure,P/L_unbalance amount,EHC_pressure control signal,Turbine speed signal,Condenser vacuum_(W/R),HPCI_pump discharge pressure,HPCI_pump discharge flow rate,HPCI turbine rotation speed,HPCI_flow rate controller output,CS_A pump_discharge pressure,CS_B pump_discharge pressure,CS_A pump_discharge flow rate,CS_B pump_discharge pressure,RCIC_pump discharge pressure,RCIC_pump discharge flow rate,RCIC turbine rotation speed,RCIC_flow rate controller output,D/G_5A voltage_R-T,D/G_5B voltage_R-T,D/G_5A current �iR�j,D/G_5B current �iR�j,Reactor water level (N/R)_B,Reactor water level (N/R)_C
Time data,��m,��m,t/h,t/h,A,A,%,%,MPa,MPa,t/h,t/h,kPa,%,%,kPa,V,V,MW,kA,kV,A,V,MVAR,kA,kA,kV,kV,kV,Hz,V,V,MPa,MPa,MPa,%,%,%,%,%,MPa,%,%,MPa,%,%,%,%,%,%,%,%,%,%,rpm,kPaa,MPa,t/h,rpm,%,MPa,MPa,t/h,t/h,MPa,t/h,rpm,%,V,V,A,A,mm,mm
2011/3/11 12:00:00,35.34,3.54,2763.84,2811.84,177.36,182.16,31.792625,30.152625,0.1248,0.1347,6979,7171.5,16.49,30.01725,30.663,42.02,1040.97,1070.79,0.3456,0.0252,-0.030375,-6.25,0.225,0.6048,-0.0648,-0.0846,-0.073125,-0.04275,545.168,49.9612,468.672,467.376,7.1504781,7.1472864,-0.075,25.008,-4.39,-4.415,-3.98,-4.115,0.01213575,3.025,2.69,6.4363605,3.03,-4.28,2.905,-0.14,-0.205,-0.24,0.198,3.1515,2.87,0.025,-0.1875,100.991,0.185,-1.26,-8,103.955,0.068425,0.0756,-2.025,-2.1,0.197,-0.114,-2.7,101.88,-9.9,-13.5,-1.9,-1.8,1535.53125,1535.71875
2011/3/11 12:10:00,39.555,3.54,2773.92,2811.36,178.44,182.52,31.521,30.1475,0.125025,0.1344,6979,7143.5,16.48,30.10125,30.684,42,1044.33,1076.88,0.0864,0.0234,-0.0315,-4.6875,0.225,0.6048,-0.063,-0.0846,-0.072,-0.0405,545.584,50.0328,469.392,468.384,7.1551853,7.1518712,-0.075,25.008,-4.4,-4.43,-3.975,-4.115,0.01213575,3.035,2.67,6.43672825,3.04,-4.29,2.89,-0.13,-0.225,-0.23,0.204,3.157,2.88,0.025,-0.09375,100.9745,0.185,-1.14,-8.5,103.955,0.0686,0.0756,-2.025,-1.95,0.1975,-0.126,-2.7,101.87,-9.9,-13.05,-1.95,-1.75,1535.625,1535.53125
2011/3/11 12:20:00,34.185,3.5625,2763.36,2811.36,177.36,183.66,31.61325,30.152625,0.124875,0.134925,7010.5,7141.75,16.53,30.0435,30.6315,41.98,1040.97,1071.84,0.0864,0.0252,-0.030375,-5.625,0.16875,0.6912,-0.0612,-0.0864,-0.073125,-0.041625,545.48,50.0012,469.488,468.144,7.1579802,7.1547888,-0.075,25.006,-4.405,-4.425,-3.995,-4.115,0.011768,3.02,2.68,6.4363605,3.035,-4.285,2.9,-0.135,-0.22,-0.24,0.204,3.157,2.87,0.025,0,100.9635,0.1855,-1.14,-8.5,103.955,0.0686,0.075425,-2.025,-2.025,0.1965,-0.114,-3,101.87,-10.8,-13.5,-2,-1.7,1535.53125,1535.625
2011/3/11 12:30:00,31.9125,3.555,2775.36,2811.84,178.56,183.84,31.51075,30.121875,0.12495,0.1347,7001.75,7108.5,16.37,30.054,30.65775,41.84,1041.39,1072.47,0.3456,0.0252,-0.0315,-5.625,0.1125,0.6048,-0.0612,-0.0864,-0.073125,-0.04275,545.584,50,469.392,468.096,7.1669533,7.1639584,-0.0745,25.006,-4.36,-4.42,-3.99,-4.115,0.0110325,3.005,2.69,6.437096,3.04,-4.285,2.905,-0.135,-0.21,-0.245,0.204,3.157,2.87,0.025,-0.09375,100.9415,0.185,-1.2,-8.75,103.95,0.068775,0.075775,-1.95,-2.025,0.1965,-0.114,-2.7,101.87,-10.35,-12.6,-2,-1.75,1535.53125,1535.625
2011/3/11 12:40:00,31.7775,3.54,2775.36,2811.36,178.86,182.4,31.726,30.152625,0.1254,0.1338,7001.75,7141.75,16.54,30.18525,30.6525,42.1,1046.01,1069.74,0.0864,0.0234,-0.030375,-5.625,0.16875,0.7776,-0.0612,-0.0864,-0.073125,-0.039375,545.584,49.966,469.008,467.856,7.1691598,7.1664592,-0.075,25.008,-4.385,-4.43,-3.98,-4.125,0.01140025,2.995,2.69,6.43599275,3.03,-4.285,2.89,-0.145,-0.225,-0.24,0.204,3.1515,2.88,0.03,-0.1875,100.925,0.185,-1.26,-8.5,103.95,0.0686,0.0756,-1.95,-2.1,0.1965,-0.114,-2.7,101.87,-10.8,-13.5,-2.05,-1.65,1535.53125,1535.53125
2011/3/11 12:50:00,27.36,3.54,2763.84,2811.36,178.98,183.96,31.7055,30.152625,0.1248,0.134925,6973.75,7173.25,16.45,29.99625,30.6525,41.9,1046.01,1076.46,0.0864,0.0234,-0.030375,-5,0.16875,0.6048,-0.063,-0.0864,-0.073125,-0.041625,545.168,50.0064,468.48,467.808,7.1559208,7.1527048,-0.075,25.008,-4.37,-4.42,-3.99,-4.12,0.01213575,3.025,2.695,6.435625,3.05,-4.27,2.91,-0.135,-0.22,-0.24,0.198,3.1515,2.87,0.025,-0.1875,100.8975,0.1855,-1.26,-8.5,103.945,0.0686,0.075775,-2.1,-2.025,0.197,-0.114,-2.4,101.88,-9.9,-13.05,-2,-1.8,1535.53125,1535.4375
2011/3/11 13:00:00,26.3925,3.555,2774.4,2787.84,178.08,183.54,31.46975,30.127,0.124725,0.13395,6979,7176.75,16.37,30.02775,30.6315,41.84,1040.55,1077.09,0.1728,0.0252,-0.030375,-5.9375,0.225,0.6048,-0.0612,-0.0864,-0.072,-0.0405,545.064,49.9832,469.152,467.76,7.14849225,7.1456192,-0.0755,25.008,-4.405,-4.43,-4,-4.12,0.011768,3.015,2.67,6.43599275,3.025,-4.275,2.89,-0.14,-0.22,-0.25,0.198,3.1515,2.86,0.02,-0.1875,100.892,0.185,-1.2,-8.25,103.95,0.0686,0.07595,-2.1,-2.025,0.1965,-0.126,-3,101.87,-9.9,-13.05,-2.1,-1.75,1535.34375,1535.625
2011/3/11 13:10:00,22.155,3.555,2763.36,2811.36,178.5,184.2,31.67475,30.15775,0.1248,0.135375,7003.5,7145.25,16.48,30.054,30.71025,41.96,1048.53,1077.51,0.1728,0.0252,-0.030375,-5.9375,0.1125,0.6912,-0.0612,-0.0864,-0.073125,-0.041625,545.168,50.0436,468.768,467.808,7.15055165,7.1477032,-0.0745,25.01,-4.385,-4.425,-3.98,-4.12,0.01140025,3.02,2.67,6.4363605,3.04,-4.28,2.9,-0.135,-0.205,-0.245,0.21,3.157,2.88,0.03,-0.09375,100.8975,0.185,-1.26,-8.25,103.955,0.068425,0.075775,-2.025,-1.95,0.1965,-0.114,-2.7,101.88,-10.35,-13.05,-1.9,-1.75,1535.53125,1535.53125
2011/3/11 13:20:00,23.0325,3.54,2763.36,2810.88,177.24,184.08,31.69525,30.127,0.124725,0.134175,7010.5,7171.5,16.46,30.04875,30.65775,41.92,1039.71,1078.35,0.0864,0.0216,-0.02925,-5.3125,0.16875,0.7776,-0.0612,-0.0882,-0.072,-0.039375,545.064,50.0124,469.056,468.048,7.1497426,7.1472864,-0.0745,25.008,-4.375,-4.43,-3.985,-4.12,0.011768,3.015,2.695,6.435625,3.055,-4.28,2.91,-0.13,-0.2,-0.24,0.192,3.146,2.86,0.025,-0.1875,100.8755,0.185,-1.26,-8.25,103.945,0.068425,0.0756,-2.025,-1.95,0.196,-0.12,-3,101.87,-11.25,-12.15,-2,-1.75,1535.625,1535.625
2011/3/11 13:30:00,18.84,3.5475,2763.36,2811.36,178.8,182.88,31.741375,30.127,0.12465,0.13425,6975.5,7169.75,16.43,30.02775,30.6315,41.86,1045.17,1069.53,0.2592,0.0252,-0.030375,-5.3125,0.225,0.6912,-0.0648,-0.0864,-0.073125,-0.0405,545.168,49.9812,468.96,467.952,7.15658275,7.1535384,-0.075,25.008,-4.38,-4.43,-3.985,-4.115,0.01140025,3.02,2.68,6.43599275,3.045,-4.29,2.905,-0.14,-0.23,-0.245,0.198,3.1515,2.88,0.02,-0.1875,100.87,0.185,-1.26,-8,103.95,0.068775,0.07595,-2.025,-2.025,0.1965,-0.12,-2.7,101.87,-10.35,-13.05,-2.05,-1.75,1535.71875,1535.71875
2011/3/11 13:40:00,20.37,3.5475,2786.88,2811.36,178.68,182.4,31.444125,30.121875,0.1257,0.1344,6977.25,7176.75,16.52,30.1275,30.663,41.92,1050.21,1069.32,0.0864,0.0234,-0.0315,-5.9375,0.16875,0.6048,-0.0648,-0.0864,-0.073125,-0.039375,545.168,49.99,469.056,467.712,7.15525885,7.1531216,-0.075,25.006,-4.37,-4.42,-4,-4.115,0.011768,3.03,2.665,6.435625,3.03,-4.29,2.89,-0.125,-0.23,-0.245,0.204,3.1515,2.87,0.03,-0.1875,100.8535,0.1845,-1.26,-8.5,103.945,0.0686,0.075775,-1.95,-2.1,0.1965,-0.114,-3,101.87,-10.35,-13.05,-1.95,-1.75,1535.53125,1535.53125
2011/3/11 13:50:00,17.535,3.5475,2774.88,2811.36,178.62,183.48,31.526125,30.142375,0.12495,0.1341,6980.75,7176.75,16.47,30.06975,30.6735,41.92,1048.53,1072.47,0.1728,0.0252,-0.0315,-5,0.16875,0.6048,-0.0594,-0.0882,-0.073125,-0.039375,545.064,49.9948,468.96,468,7.1463593,7.143952,-0.075,25.006,-4.395,-4.425,-3.985,-4.11,0.01213575,3,2.685,6.43599275,3.03,-4.285,2.895,-0.12,-0.225,-0.24,0.204,3.157,2.89,0.03,-0.09375,100.848,0.185,-1.26,-8.5,103.95,0.0686,0.075775,-2.025,-2.1,0.1975,-0.114,-3,101.87,-9.9,-13.05,-2,-1.85,1535.53125,1535.4375
2011/3/11 14:00:00,16.38,3.555,2786.4,2810.88,177.66,184.08,31.587625,30.127,0.1248,0.1347,7021,7105,16.48,30.1275,30.6525,41.92,1049.37,1072.05,0.1728,0.0234,-0.030375,-5.3125,0.225,0.5184,-0.0648,-0.0882,-0.07425,-0.0405,545.376,50.0056,469.44,467.952,7.1568034,7.1539552,-0.0745,25.002,-4.36,-4.425,-4.01,-4.115,0.01213575,3.025,2.675,6.4363605,3.025,-4.265,2.88,-0.12,-0.2,-0.24,0.198,3.157,2.86,0.025,-0.28125,100.8645,0.185,-1.2,-8.75,103.95,0.068775,0.075775,-1.95,-2.025,0.1965,-0.114,-3,101.87,-9.9,-12.6,-2,-1.8,1535.625,1535.71875
2011/3/11 14:10:00,15.375,3.555,2763.84,2811.36,178.44,182.82,31.444125,30.1475,0.124725,0.1344,6952.75,7176.75,16.39,30.054,30.663,41.84,1047.27,1069.74,0.2592,0.0216,-0.0315,-5.3125,0.16875,0.6048,-0.0612,-0.0882,-0.073125,-0.041625,545.272,50.0188,469.344,468.24,7.1535672,7.1510376,-0.0745,25.006,-4.39,-4.42,-3.97,-4.12,0.011768,3.01,2.62,6.435625,2.995,-4.28,2.855,-0.125,-0.23,-0.24,0.204,3.157,2.87,0.02,-0.09375,100.87,0.185,-1.26,-8.25,103.955,0.0686,0.07595,-1.875,-1.95,0.197,-0.114,-2.7,101.88,-10.35,-13.05,-2,-1.75,1535.71875,1535.625
2011/3/11 14:20:00,19.4775,3.555,2785.92,2811.36,178.26,182.52,31.464625,30.152625,0.1254,0.1347,7084,7106.75,16.55,30.264,30.684,41.98,1048.95,1077.72,0.2592,0.0234,-0.02925,-5.9375,0.16875,0.5184,-0.063,-0.0882,-0.073125,-0.041625,544.96,50.0008,469.776,468.336,7.15717115,7.1539552,-0.0745,25.008,-4.39,-4.415,-3.99,-4.125,0.01140025,2.995,2.63,6.43599275,2.995,-4.275,2.87,-0.115,-0.23,-0.24,0.198,3.1515,2.86,0.03,-0.1875,100.8645,0.1845,-1.26,-8.5,103.94,0.068775,0.0756,-2.025,-2.025,0.1965,-0.12,-3,101.87,-10.8,-13.5,-1.95,-1.75,1535.53125,1535.625
2011/3/11 14:30:00,16.1025,3.5475,2749.92,2811.84,178.44,184.08,31.521,30.127,0.123825,0.134775,6949.25,7176.75,16.37,29.95425,30.68925,41.78,1039.29,1077.72,0.0864,0.0216,-0.030375,-5.625,0.16875,0.6912,-0.0612,-0.0864,-0.073125,-0.0405,544.96,50.0128,469.248,467.952,7.1445941,7.1414512,-0.0745,25.008,-4.375,-4.43,-4.01,-4.115,0.01066475,2.99,2.63,6.435625,2.99,-4.275,2.865,-0.12,-0.225,-0.265,0.198,3.1515,2.87,0.03,-0.1875,100.881,0.185,-1.26,-8.75,103.95,0.068775,0.0756,-2.1,-2.1,0.1965,-0.12,-3.3,101.86,-11.25,-13.05,-1.9,-1.75,1535.625,1535.53125
2011/3/11 14:40:00,26.79,3.5625,2763.84,2811.36,178.92,183.96,31.562,30.11675,0.124425,0.134475,6979,7143.5,16.46,30.0435,30.663,41.86,1046.43,1077.72,0.1728,0.0216,-0.030375,-5.3125,0.16875,0.5184,-0.0612,-0.09,-0.073125,-0.04275,545.064,50.0412,469.488,467.856,7.14437345,7.141868,-0.0745,25.008,-4.405,-4.44,-4.005,-4.12,0.0125035,2.995,2.635,6.43599275,2.98,-4.28,2.855,-0.105,-0.225,-0.25,0.198,3.1515,2.87,0.03,-0.09375,100.87,0.185,-1.2,-8.5,103.95,0.0686,0.0756,-2.025,-2.025,0.1965,-0.114,-3,101.87,-10.8,-12.6,-1.95,-1.85,1535.625,1535.4375
2011/3/11 14:50:00,177.045,3.6675,5.76,2.4,-0.6,-0.36,32.00275,29.814375,7.5E-05,0.001575,2707.25,525,-0.06,12.30375,-0.0075,20.78,503.79,-1.26,0.1728,0.0216,-0.0315,-5.3125,0.16875,0.6048,-0.0666,-0.0864,-0.07425,-0.04275,558.064,49.7416,471.984,464.016,6.1315164,5.941484,-0.0745,25.006,-4.91,-4.715,-4.375,-4.33,0.011768,3.065,2.74,6.43672825,3.08,-4.615,2.92,-0.09,-0.25,-0.29,0.204,3.1515,2.88,0.025,-0.09375,100.8535,0.27,-1.2,-8.25,103.955,0.068075,0.0756,-2.25,-1.95,0.2695,-0.126,-2.7,101.87,6914.7,6836.4,53.15,252.9,1535.625,1535.53125
2011/3/11 15:00:00,41.31,3.6375,0.48,0.48,-0.48,-0.3,31.972,29.845125,0.0009,0.002775,721,493.5,-0.05,0.00825,-0.00225,20.68,-1.68,-1.26,0.3456,0.0198,-0.032625,-5.9375,0.28125,0.5184,-0.0648,-0.0882,-0.07425,-0.04275,555.464,49.9888,474.096,465.552,6.1231317,5.016188,-0.0745,25.01,-4.88,-4.675,-4.39,-4.36,0.01140025,3.075,2.765,6.4363605,3.105,-4.59,2.98,-0.12,-0.23,-0.27,0.198,3.157,2.87,0.03,-0.1875,100.8975,0.27,-1.2,-8.25,103.95,0.0679,0.0756,-1.95,-2.025,0.2695,-0.126,-2.7,101.87,6935.85,6859.8,49.45,252.5,1535.53125,1535.53125
2011/3/11 15:10:00,83.64,3.6825,0,0,-0.6,-0.36,31.977125,29.82975,0.00105,0.00255,500.5,742,-0.06,0.0135,0.003,20.64,-1.68,-1.68,0,0.0216,-0.0315,-4.6875,0.225,0.864,-0.0666,-0.0882,-0.073125,-0.0405,556.088,49.9744,476.976,469.824,6.1232788,5.045364,-0.075,25.006,-4.87,-4.705,-4.36,-4.34,0.0125035,3.09,2.725,6.4363605,3.11,-4.59,2.96,-0.105,-0.225,-0.24,0.192,3.1515,2.89,0.02,-0.1875,100.8975,0.27,-1.32,-8.25,103.945,0.0679,0.075425,-1.95,-2.025,0.2675,-0.126,-3,101.86,6949.35,6868.8,37.65,220,1535.53125,1535.53125
2011/3/11 15:20:00,50.9325,3.7425,0,-0.48,-0.54,-0.3,31.895125,29.80925,0.00105,0.002925,444.5,246.75,-0.06,0.003,-0.018,20.64,-1.26,-1.47,0.1728,0.0198,-0.030375,-4.6875,0.16875,0.6048,-0.0648,-0.09,-0.073125,-0.04275,557.336,50.0204,477.024,469.392,6.12335235,5.0695384,-0.074,25.004,-4.86,-4.69,-4.35,-4.335,0.01140025,3.09,2.76,6.435625,3.13,-4.58,2.98,-0.085,-0.215,-0.24,0.204,3.157,2.87,0.025,-0.09375,100.9195,0.2685,-1.32,-8.5,103.945,0.067725,0.075425,-1.875,-2.025,0.2665,-0.126,-2.7,101.87,6951.15,6872.4,37.85,228.7,1535.4375,1535.53125
2011/3/11 15:30:00,36.015,3.735,0,-0.48,-0.6,-0.36,31.89,29.834875,0.00075,0.002925,455,462,-0.04,-0.00225,-0.018,20.6,-1.26,-1.68,0.432,0.0216,-0.030375,-4.6875,0.1125,0.6048,-0.0666,-0.09,-0.07425,-0.041625,557.44,49.9812,476.976,468.768,6.1234259,5.1003816,-0.0745,25.002,-4.87,-4.68,-4.365,-4.35,0.01213575,3.09,2.785,6.43599275,3.135,-4.585,3,-0.095,-0.22,-0.21,0.192,3.157,2.87,0.02,-0.1875,100.925,0.2675,-1.32,-8.75,103.945,0.068075,0.07525,-2.025,-2.025,0.267,-0.126,-2.7,101.86,6952.05,6876,38.05,230.5,1535.4375,1535.53125
2011/3/11 15:40:00,-36.39,-35.895,0,0,-181.62,-126.18,31.92075,29.84,0.00075,0.002325,-7003.5,-7012.25,-0.04,0.00825,-0.00225,20.58,-677.04,-913.29,0.2592,0.0216,-0.032625,-1249.0625,-224.94375,0.6912,-0.0666,-0.0882,-0.0765,-0.04275,558.584,49.9972,-0.048,472.8,6.123573,5.1187208,-0.0745,25,-4.865,-4.555,-4.325,-4.26,0.011768,3.18,2.975,6.43452175,3.25,-4.54,3.125,-0.06,-0.155,-0.17,0.192,3.146,2.85,0.025,-0.1875,100.98,0.268,-1.32,-8.75,103.94,0.0679,0.07525,-2.025,-2.1,0.2665,-0.132,-2.7,101.86,3497.85,6891.3,-2,35.8,1535.34375,1535.34375
2011/3/11 15:50:00,-34.68,-35.31,0,-0.48,-300.06,-300.36,31.884875,29.84,-0.375075,-0.375,-7003.5,-7012.25,-49.98,0.003,-0.0075,-100.08,-1050.21,-1050.63,0.2592,-9,-5.621625,-1249.0625,-224.94375,-2.2464,-9,-9,-5.625,-5.6205,-0.52,44.8072,-0.144,-0.192,6.12379365,5.1658192,-2.5,25,-4.855,-4.62,-4.335,-4.27,0.011768,3.16,3.005,6.43452175,3.26,-4.53,3.1,-0.065,-0.185,-0.19,0.198,3.146,2.85,0.02,-0.09375,100.98,0.268,-1.26,-8.5,103.94,0.0679,0.07525,-1.95,-2.1,0.2675,-0.12,-1.5,101.86,-9.9,-13.5,-1.9,-1.85,1535.4375,1535.25
2011/3/11 16:00:00,-35.34,-35.91,-0.48,0,-300.18,-300.36,31.9105,29.82975,-0.37515,-0.375,-7001.75,-7014,-49.98,-0.0075,-0.01275,-100.06,-1050.42,-1050.84,0.3456,-9.0018,-5.625,-1249.375,-225,-0.9504,-9.0018,-9.0036,-5.62725,-5.625,-0.52,44.8036,-0.096,-0.096,6.12394075,5.21,-2.4995,25.002,-4.86,-4.64,-4.36,-4.295,0.01140025,3.18,2.94,6.434154,3.235,-4.545,3.055,-0.085,-0.18,-0.215,0.192,3.1515,2.84,0.015,-0.1875,100.958,0.268,-1.26,-8.25,103.935,0.068075,0.07525,-2.025,-2.025,0.268,-0.108,0.3,101.85,-10.8,-13.05,-2.25,-1.85,1535.34375,1535.25
2011/3/11 16:10:00,-35.775,-36.3075,0,0,-300.18,-300.36,31.874625,29.82975,-0.37515,-0.375075,-7003.5,-7012.25,-49.99,-0.0075,-0.01275,-100.06,-1050.42,-1050.63,0.3456,-9.0036,-5.62725,-1249.375,-224.94375,-0.5184,-9.0036,-9.0036,-5.628375,-5.625,-0.728,44.8024,-0.096,-0.048,6.1240143,5.2512632,-2.5,24.996,-4.86,-4.65,-4.365,-4.255,0.01066475,3.135,2.975,6.43452175,3.24,-4.54,3.07,-0.075,-0.19,-0.16,0.186,3.146,2.86,0.02,-0.1875,100.9415,0.2675,-1.26,-8.5,103.935,0.068075,0.07525,-1.8,-1.95,0.269,-0.114,-0.3,101.86,-11.25,-13.5,-1.7,-1.75,1535.4375,1534.96875
2011/3/11 16:20:00,-36.12,-36.585,0,0,-300.18,-300.36,31.884875,29.8605,-0.37515,-0.375,-7005.25,-7015.75,-49.99,0.00825,-0.018,-100.06,-1050.21,-1051.05,0.1728,-9.0054,-5.626125,-1249.0625,-224.94375,-0.3456,-9.0018,-9.0018,-5.628375,-5.625,-0.52,44.8008,-0.144,-0.288,6.1241614,5.2937768,-2.4995,24.996,-4.86,-4.69,-4.395,-4.215,0.01066475,3.125,2.99,6.43452175,3.215,-4.57,3.08,-0.075,-0.19,-0.175,0.186,3.146,2.85,0.015,-0.375,100.9415,0.268,-1.26,-8.5,103.935,0.0679,0.0749,-2.025,-1.95,0.268,-0.108,0.6,101.83,-11.25,-13.95,-2.2,-1.8,1535.25,1534.96875
2011/3/11 16:30:00,-36.4125,-36.795,0,-0.48,-300.24,-300.3,31.874625,29.82975,-0.375225,-0.374925,-7003.5,-7015.75,-49.99,-0.0075,-0.02325,-100.06,-1050.42,-1050.84,0.1728,-9.0072,-5.626125,-1249.375,-225,-0.1728,-9.0036,-9.0054,-5.628375,-5.625,-0.728,44.8,-0.24,-0.144,6.1243085,5.33504,-2.4995,24.994,-4.865,-4.685,-4.385,-4.33,0.01140025,3.085,2.95,6.434154,3.2,-4.54,3.04,-0.11,-0.19,-0.25,0.186,3.146,2.83,0.01,-0.1875,100.925,0.268,-1.26,-7.75,103.925,0.06825,0.0749,-2.325,-1.95,0.268,-0.102,1.2,101.84,-10.35,-13.95,-1.4,-1.8,1535.25,1534.875
2011/3/11 16:40:00,-36.6525,-36.9675,-0.48,0,-300.24,-300.24,31.79775,29.80925,-0.37515,-0.375,-7005.25,-7017.5,-49.99,0.0135,-0.00225,-100.06,-1050.42,-1050.84,0.432,-9.0072,-5.62725,-1249.375,-225,-0.1728,-9.0054,-9.0054,-5.628375,-5.625,-0.624,44.7996,-0.192,-0.24,6.12452915,5.3758864,-2.5,24.99,-4.875,-4.695,-4.395,-4.345,0.01066475,3.105,2.93,6.43305075,3.145,-4.575,3.03,-0.12,-0.23,-0.275,0.18,3.146,2.85,0.015,-0.1875,100.947,0.267,-1.26,-8,103.93,0.068075,0.074725,-1.95,-2.025,0.268,-0.108,1.2,101.84,-11.25,-14.4,-1.95,-1.85,1535.25,1534.6875
2011/3/11 16:50:00,-36.8625,-37.0875,0,-0.48,-300.18,-300.3,31.79775,29.824625,-0.37515,-0.375,-7003.5,-7014,-49.99,0.00825,-0.0075,-100.06,-1050.42,-1051.05,0.432,-9.0072,-5.628375,-1249.375,-225,0,-9.0036,-9.0054,-5.628375,-5.626125,-0.624,44.7992,-0.192,-0.24,6.1247498,5.4171496,-2.5,24.99,-4.86,-4.69,-4.395,-4.345,0.01140025,3.135,2.91,6.43378625,3.11,-4.575,3.035,-0.115,-0.23,-0.265,0.186,3.1405,2.84,0.02,-0.375,100.9855,0.2665,-1.32,-8.25,103.915,0.068075,0.0749,-1.875,-1.95,0.2675,-0.108,1.2,101.83,-10.8,-13.95,-2.05,-1.85,1535.15625,1534.78125
2011/3/11 17:00:00,-37.02,-37.1775,0,-0.48,-300.18,-300.42,31.7875,29.8195,-0.37515,-0.375,-7003.5,-7012.25,-49.98,-0.00225,-0.01275,-100.06,-1050,-1051.05,0.5184,-9.009,-5.628375,-1248.75,-224.94375,0,-9.0072,-9.0072,-5.6295,-5.62725,-0.728,44.7996,-0.144,-0.192,6.1248969,5.4584128,-2.4995,24.992,-4.875,-4.69,-4.4,-4.335,0.01140025,3.125,2.94,6.43305075,3.15,-4.57,3.03,-0.135,-0.23,-0.28,0.186,3.1405,2.83,0.015,-0.28125,100.991,0.267,-1.2,-8,103.92,0.0679,0.075075,-1.875,-1.875,0.268,-0.108,1.2,101.83,-11.25,-14.4,-2.05,-1.9,1535.15625,1534.6875
2011/3/11 17:10:00,-37.1325,-37.2525,0,0,-300.24,-300.42,31.7875,29.824625,-0.37515,-0.375,-7001.75,-7015.75,-49.98,0.00825,-0.0075,-100.08,-1050,-1051.05,0.432,-9.0072,-5.630625,-1249.375,-225,0,-9.0054,-9.0054,-5.628375,-5.626125,-0.728,44.7996,-0.144,-0.144,6.125044,5.4992592,-2.5,24.986,-4.86,-4.69,-4.39,-4.32,0.01140025,3.13,2.94,6.43378625,3.13,-4.565,3.05,-0.13,-0.225,-0.275,0.18,3.1515,2.86,0.015,-0.28125,101.024,0.2665,-1.2,-8.25,103.925,0.06825,0.075075,-1.875,-2.025,0.268,-0.108,1.2,101.83,-11.25,-14.4,-2.05,-1.85,1535.0625,1534.5
2011/3/11 17:20:00,-37.2525,-37.305,0,-0.96,-300.3,-300.3,31.767,29.824625,-0.375225,-0.375075,-7005.25,-7017.5,-49.98,0.00825,-0.0075,-100.08,-1050.42,-1051.05,0.3456,-9.0108,-5.628375,-1248.75,-225,0.0864,-9.0054,-9.009,-5.628375,-5.625,-0.728,44.7996,-0.192,-0.336,6.1253382,5.5409392,-2.5,24.984,-4.855,-4.69,-4.385,-4.305,0.0110325,3.12,2.935,6.43305075,3.155,-4.555,3.04,-0.14,-0.245,-0.28,0.186,3.146,2.84,0.02,-0.28125,101.0515,0.2665,-1.26,-8,103.915,0.0679,0.07455,-1.8,-2.025,0.268,-0.114,1.5,101.83,-11.7,-14.4,-2.1,-1.9,1534.96875,1534.59375
2011/3/11 17:30:00,-37.3275,-37.3425,-0.48,-0.48,-300.24,-300.3,31.782375,29.8195,-0.3753,-0.375075,-7001.75,-7017.5,-49.98,-0.018,-0.018,-100.08,-1050.42,-1051.05,0.3456,-9.009,-5.6295,-1248.75,-225,0,-9.0054,-9.0054,-5.63175,-5.626125,-0.832,44.7992,-0.192,-0.144,6.1254853,5.5817856,-2.4995,24.984,-4.865,-4.68,-4.38,-4.315,0.010297,3.145,2.92,6.4334185,3.165,-4.555,3.02,-0.125,-0.225,-0.275,0.174,3.135,2.82,0.01,-0.1875,101.068,0.267,-1.32,-8.5,103.92,0.06825,0.0749,-1.8,-1.95,0.2675,-0.108,1.2,101.83,-11.25,-14.85,-2.1,-1.85,1535.0625,1534.40625
2011/3/11 17:40:00,-37.38,-37.38,0,0,-300.24,-300.24,31.7875,29.8195,-0.375225,-0.375075,-7005.25,-7019.25,-49.98,0.00825,-0.02325,-100.08,-1050.84,-1051.26,0.432,-9.0072,-5.6295,-1249.375,-225,0.0864,-9.0072,-9.009,-5.62725,-5.62725,-0.728,44.7996,-0.288,-0.192,6.1257795,5.622632,-2.5,24.986,-4.86,-4.695,-4.365,-4.31,0.01140025,3.165,2.92,6.432683,3.17,-4.555,3.045,-0.125,-0.215,-0.25,0.192,3.146,2.83,0.01,-0.46875,101.0735,0.2665,-1.2,-8.25,103.91,0.0679,0.074725,-1.95,-2.025,0.2675,-0.096,1.2,101.83,-11.25,-14.4,-2.15,-1.9,1534.875,1534.40625
2011/3/11 17:50:00,-37.4325,-37.4175,-0.48,-0.48,-300.18,-300.36,31.73625,29.799,-0.3753,-0.375075,-7012.25,-7019.25,-49.98,0.003,-0.01275,-100.08,-1050.42,-1051.26,0.432,-9.009,-5.628375,-1248.75,-225,0,-9.0072,-9.009,-5.6295,-5.626125,-0.728,44.7992,-0.24,-0.336,6.1259266,5.6634784,-2.5,24.982,-4.855,-4.695,-4.345,-4.305,0.01066475,3.15,2.93,6.432683,3.16,-4.55,3.055,-0.14,-0.215,-0.255,0.18,3.1405,2.82,0.01,-0.28125,101.0845,0.266,-1.32,-8.5,103.915,0.067725,0.074725,-1.875,-2.025,0.267,-0.108,1.5,101.82,-11.7,-14.4,-2.05,-1.85,1534.875,1534.3125
2011/3/11 18:00:00,-37.47,-37.4325,0,-0.48,-300.24,-300.3,31.710625,29.7785,-0.37515,-0.375075,-7007,-7017.5,-49.99,0.003,-0.01275,-100.08,-1050.42,-1051.05,0.432,-9.009,-5.628375,-1249.0625,-225.05625,0,-9.0072,-9.009,-5.6295,-5.626125,-0.728,44.7992,-0.288,-0.336,6.1263679,5.7051584,-2.5,24.982,-4.84,-4.665,-4.34,-4.29,0.0110325,3.16,2.94,6.432683,3.19,-4.545,3.045,-0.14,-0.235,-0.245,0.174,3.1405,2.83,0.01,-0.28125,101.09,0.266,-1.26,-8,103.915,0.0679,0.074725,-1.95,-2.1,0.267,-0.108,1.5,101.82,-12.15,-14.85,-2.1,-1.95,1535.15625,1534.40625
2011/3/11 18:10:00,-37.5,-37.455,0,0,-300.24,-300.3,31.73625,29.804125,-0.375225,-0.375,-7008.75,-7019.25,-49.97,0.00825,-0.01275,-100.1,-1050.84,-1051.26,0.5184,-9.0108,-5.628375,-1249.0625,-224.8875,0.1728,-9.009,-9.0072,-5.6295,-5.62725,-0.936,44.7988,-0.24,-0.384,6.12658855,5.7468384,-2.5,24.982,-4.83,-4.675,-4.35,-4.28,0.0110325,3.17,2.985,6.43231525,3.2,-4.52,3.09,-0.105,-0.195,-0.24,0.18,3.1405,2.83,0.015,-0.375,101.101,0.2655,-1.26,-8,103.91,0.0679,0.07455,-1.875,-2.1,0.267,-0.102,1.5,101.83,-11.25,-15.3,-2.1,-1.85,1534.875,1534.125